Flag for Norway Weather past 2 weeks in Lillehammer, Norway

Now
49 °F

Cool.


Feels Like: 49 °F
Forecast: 34 / 64 °F
Wind: 1 mph from Northwest

Location: Lillehammer-Saetherengen

Current Time: Sep 17, 2014 at 11:51:56 AM

Latest Report: Sep 17, 2014 at 11:00 AM


Visibility: N/A

Pressure: 30.31 "Hg

Humidity: 91%

Dew point: 46 °F

Location of LillehammerLocation

Historic Weather in Lillehammer — Graph

°F

Lillehammer temperature yesterday

Maximum temperature yesterday: 65 °F (at 5:00 PM)
Minimum temperature yesterday: 43 °F (at 7:00 AM)
Average temperature yesterday: 52 °F

Past Weeks' High & Low Weather Summary

 TemperatureHumidityPressure
High71 °F (Sep 4, 4:00 PM)96% (Sep 8, 2:00 PM)30.50 "Hg (Sep 8, 2:00 PM)
Low41 °F (Sep 13, 8:00 AM)44% (Sep 4, 4:00 PM)29.76 "Hg (Sep 9, 6:00 AM)
Average55 °F82%30.19 "Hg
* Reported Sep 2 10:00 AM — Sep 17 10:00 AM, Lillehammer, Weather by CustomWeather, © 2014

Note: Actual official high and low records may vary slightly from our data, if they occured in-between our weather recording intervals... More about our weather records

Advertising

Lillehammer weather history for previous 24 hours

 ConditionsComfort  
Time TempWeatherWind HumidityBarometerVisibility
10:00 AM
Sep 17
45 °FCool.1 mph94%30.33 "HgN/A
9:00 AM44 °FQuite cool.1 mph94%30.33 "HgN/A
8:00 AM45 °FQuite cool.2 mph94%30.33 "HgN/A
7:00 AM44 °FQuite cool.1 mph96%30.33 "HgN/A
6:00 AM44 °FQuite cool.1 mph94%30.33 "HgN/A
5:00 AM44 °FQuite cool.1 mph94%30.34 "HgN/A
4:00 AM44 °FQuite cool.1 mph94%30.34 "HgN/A
3:00 AM45 °FQuite cool.1 mph94%30.34 "HgN/A
2:00 AM46 °FCool.No wind92%30.34 "HgN/A
1:00 AM47 °FCool.1 mph93%30.34 "HgN/A
12:00 AM47 °FCool.1 mph92%30.34 "HgN/A
11:00 PM
Sep 16
49 °FCool.1 mph90%30.33 "HgN/A
10:00 PM50 °FCool.No wind87%30.33 "HgN/A
9:00 PM54 °FCool.1 mph79%30.32 "HgN/A
8:00 PM55 °FCool.1 mph80%30.31 "HgN/A
7:00 PM60 °FCool.2 mph64%30.29 "HgN/A
6:00 PM63 °FMild.3 mph60%30.29 "HgN/A
5:00 PM65 °FMild.2 mph56%30.29 "HgN/A
4:00 PM64 °FMild.2 mph68%30.30 "HgN/A
3:00 PM62 °FCool.2 mph68%30.32 "HgN/A
2:00 PM60 °FCool.2 mph72%30.34 "HgN/A
1:00 PM57 °FCool.2 mph72%30.36 "HgN/A
12:00 PM55 °FCool.1 mph74%30.38 "HgN/A
11:00 AM52 °FCool.1 mph83%30.40 "HgN/A
Weather by CustomWeather, © 2014

See weather overviewHow to use our weather pages